Weather in Goreme

Turkey     38°38′39″N   34°49′50″E
temp.,
°C
wind,
m/s
gust,
m/s
humid.,
%
clouds,
%
prec.,
mm/h
press.,
hPa
HPBL,
m
18 may, wed
wed1800:00+12sw117211 0.1 101616
03:00+11wnw11740 0.1 101610
06:00+11se00760 0.0 101510
09:00+16sse11520 0.0 1015541
12:00+20w23340 0.0 10131870
15:00+23w55305 0.0 10122522
18:00+22w45310 0.0 10112220
21:00+18sse33383 0.0 101221
19 may, thu
thu1900:00+16sse334085 0.0 101221
03:00+16se014961 0.0 101111
06:00+14nw236197 0.2 101389
09:00+15nnw556871 0.2 1015932
12:00+11nnw4680100 1.1 1018570
15:00+11nnw457699 1.4 1019788
18:00+9nne7876100 0.1 1021679
21:00+8nne256649 0.1 1023485
20 may, fri
fri2000:00+5n22795 0.0 102555
03:00+4n22821 0.0 102530
06:00+4n12820 0.0 102648
09:00+9ne35585 0.0 1025835
12:00+14ne56435 0.0 10231477
15:00+16nne66361 0.0 10211754
18:00+15nne76392 0.0 10201516
21:00+10ne35570 0.0 102298
21 may, sat
sat2100:00+8ne22680 0.0 102320
03:00+7ne22720 0.0 102213
06:00+6ne11740 0.0 102211
09:00+11ene12500 0.0 1021536
12:00+17ne12310 0.0 10181113
15:00+20nne12240 0.0 10161506
18:00+20ne21240 0.0 10141484
21:00+15ne22390 0.0 101516
22 may, sun
sun2200:00+13ene11460 0.0 101411
03:00+11ene11480 0.0 101310
06:00+11e22500 0.0 101210
09:00+17ene12350 0.0 1010470
12:00+22ne02260 0.0 10081284
15:00+24wnw3324100 0.0 10042051
18:00+16se5754100 1.5 1007320
21:00+15wnw1163100 2.1 100622